Wind_Speed
46 46 45 45 45 44 44 44 44 44 43 43 42 42 42 41 41 40 40 38 37 36 36 35 35 34 34 34 33 33 33 33 33 32 32 32 32 31 32 32 32 33 33
46 46 46 46 46 45 45 45 45 45 45 44 44 43 43 43 42 41 40 39 38 37 37 37 36 35 35 35 34 34 34 34 35 34 34 34 34 33 33 34 34 35 35
45 45 45 46 46 46 45 45 45 45 45 45 45 44 44 44 43 43 42 40 40 39 38 38 37 37 36 36 36 36 35 35 36 36 36 35 35 35 35 35 35 35 36
45 45 45 45 46 46 46 46 45 45 45 45 45 45 45 44 44 44 44 42 41 41 40 39 39 38 38 38 38 37 37 37 37 37 37 36 36 36 36 36 36 36 36
46 46 46 46 46 46 46 46 46 46 46 46 46 45 45 45 44 44 44 44 43 42 42 42 41 41 40 39 39 39 39 39 39 38 38 37 36 37 37 37 36 36 36
46 46 47 47 47 46 46 47 47 47 47 46 46 46 45 45 45 45 45 45 44 44 43 42 43 43 42 41 41 41 41 41 41 40 40 39 38 37 37 37 36 36 36
46 46 47 47 47 47 47 48 48 48 47 47 47 47 47 47 46 46 45 45 45 45 44 44 44 45 44 43 42 42 42 42 42 42 41 40 39 39 38 37 37 36 36
46 47 47 47 47 48 49 48 49 48 49 49 48 48 48 48 48 47 47 46 46 46 46 45 45 45 45 45 44 43 43 43 42 42 42 41 41 40 39 39 38 38 38
45 45 46 46 47 48 49 49 49 49 50 50 50 49 49 49 49 49 48 47 47 46 46 46 45 45 45 46 46 44 44 44 43 43 43 43 42 41 41 41 41 40 39
43 45 46 46 47 47 48 49 49 50 50 51 50 50 49 49 49 49 48 48 47 47 46 46 46 46 46 46 46 45 45 45 45 44 44 43 43 43 42 42 42 42 41
41 42 43 44 45 46 47 48 49 50 50 50 50 50 49 48 48 48 48 48 48 47 47 47 47 46 46 46 46 46 45 45 46 45 44 43 43 43 43 43 43 42 42
39 41 41 42 43 44 45 47 48 49 49 49 49 49 49 49 48 48 48 49 49 49 48 47 47 46 46 46 46 45 45 45 45 45 45 44 43 43 43 43 43 42 42
37 39 40 41 42 43 43 45 47 48 49 49 49 49 49 49 49 48 49 49 49 50 50 48 47 46 46 45 45 45 45 45 45 45 44 44 43 43 43 42 43 43 43
35 36 37 39 41 43 43 44 45 47 48 49 49 49 49 49 49 49 49 50 50 50 50 49 48 47 46 45 46 45 45 44 44 43 43 43 43 43 43 43 43 43 44
34 34 36 38 39 41 42 43 44 46 47 48 48 49 49 49 49 49 49 49 50 50 50 49 49 48 47 46 46 45 45 45 44 44 44 44 43 44 44 44 44 44 45
34 34 35 36 37 38 40 42 43 44 46 47 48 48 49 50 50 50 49 49 50 50 50 50 49 49 48 48 48 47 46 45 45 45 45 44 44 43 43 43 44 44 45
33 34 34 34 36 37 38 39 40 42 43 44 46 46 47 48 49 50 50 49 49 50 50 49 49 49 48 48 47 48 47 46 45 45 45 44 43 44 44 44 44 44 45
32 33 34 34 35 36 38 39 39 39 40 41 43 45 46 47 47 48 49 49 49 49 49 49 49 49 48 47 47 48 47 46 45 45 45 44 44 44 45 44 44 44 44
32 33 33 34 35 36 37 38 39 39 39 40 40 41 43 45 45 46 46 46 46 46 47 47 47 47 47 47 47 48 47 46 45 45 45 44 44 44 45 45 45 44 44
31 32 33 33 35 36 36 36 37 37 38 38 38 39 40 41 43 44 44 45 45 45 45 46 46 46 45 46 46 47 46 45 44 45 45 45 45 45 45 45 45 44 44
31 32 32 32 33 34 35 36 36 36 37 37 37 37 38 39 40 41 42 42 43 43 44 44 45 45 45 45 45 45 45 44 43 44 44 44 44 44 44 44 44 44 44
29 30 30 31 31 32 34 35 35 35 36 36 36 36 36 36 38 38 39 40 41 41 42 43 44 44 44 45 45 45 44 43 42 43 43 43 42 42 42 43 42 42 42
27 28 28 29 29 29 29 30 32 32 33 34 34 33 34 34 34 35 36 37 38 39 41 42 43 43 43 43 44 44 44 43 42 43 43 43 43 42 42 42 42 41 41
25 25 26 26 26 26 26 26 27 28 29 30 31 31 31 31 31 31 33 34 36 36 37 38 39 40 41 42 42 42 43 43 42 42 42 42 42 42 41 40 40 40 39
23 24 25 26 26 26 26 26 26 26 27 28 29 29 30 30 29 29 30 32 33 34 34 35 36 37 38 39 40 40 41 41 41 41 41 41 41 41 40 39 40 39 39
23 24 24 25 25 26 25 26 26 26 27 28 28 28 28 29 29 28 28 29 31 32 33 33 33 34 34 36 36 37 37 38 38 38 39 39 39 38 38 38 38 38 38
Wind_Direction
239 238 238 238 238 239 239 240 240 240 241 241 242 242 243 244 245 246 248 249 251 251 250 251 252 254 255 257 258 258 259 259 260 262 263 263 264 265 265 266 266 267 269
238 239 238 238 239 239 240 240 241 241 241 241 241 242 243 244 245 246 247 249 250 250 249 250 251 253 254 255 256 257 258 259 260 262 263 263 264 265 266 267 267 268 270
238 239 239 239 239 239 240 240 241 241 241 242 241 242 243 244 245 246 246 247 248 249 249 249 250 252 254 255 256 257 258 259 261 262 263 264 265 266 266 268 268 269 270
239 238 238 238 239 239 240 240 240 241 241 242 242 242 243 243 244 245 245 246 247 249 250 251 250 251 253 255 256 257 258 260 262 263 263 264 265 266 266 267 268 269 270
239 238 238 238 238 239 239 239 240 240 241 241 242 242 242 242 243 244 245 246 247 248 250 250 251 252 253 254 255 257 258 260 261 263 264 265 266 266 266 267 268 269 269
239 238 238 238 239 239 239 239 240 240 240 241 242 242 242 242 243 244 245 246 247 248 250 251 251 252 253 254 255 257 258 260 261 262 264 265 266 265 266 267 268 268 269
239 238 238 239 239 239 239 239 240 241 241 242 242 243 243 243 243 244 245 246 247 248 249 250 251 252 253 254 255 257 258 259 260 260 262 264 265 266 265 266 267 268 269
240 240 240 241 240 240 240 240 240 241 242 242 243 244 244 244 244 244 245 246 248 249 250 251 252 253 254 255 256 257 258 259 260 260 261 263 264 265 265 265 266 267 268
241 240 241 241 241 241 241 241 241 241 242 243 243 244 244 245 245 245 246 247 247 249 250 252 253 253 254 255 256 256 257 258 259 261 262 262 263 264 264 265 266 267 268
241 241 241 241 242 242 241 241 242 242 242 243 243 244 245 246 246 246 247 247 248 249 250 251 253 254 253 254 255 256 256 257 259 261 261 262 262 262 263 265 265 266 267
241 241 242 242 242 242 242 241 241 242 243 244 244 244 245 246 246 246 246 246 248 249 250 251 252 254 254 254 255 257 256 257 258 259 260 261 262 262 262 263 265 266 267
245 245 244 243 243 243 242 241 241 242 243 244 243 243 244 245 246 246 246 247 248 249 251 251 253 254 255 254 255 256 257 258 258 258 259 260 261 262 263 264 265 266 267
247 247 246 245 244 244 243 242 241 241 242 243 244 244 245 246 246 246 246 247 248 249 250 251 252 253 253 253 254 256 257 259 259 259 259 260 261 262 263 264 265 266 267
247 247 247 246 245 245 244 244 243 242 242 243 244 244 245 246 247 248 247 247 248 249 250 250 251 252 253 254 254 255 257 258 259 259 259 259 261 262 263 264 265 267 268
247 247 246 245 244 245 245 245 244 243 243 243 245 245 246 246 247 248 248 248 249 249 250 250 251 252 252 253 254 255 256 258 259 259 259 259 260 261 263 264 265 267 268
248 247 247 245 244 244 244 244 244 244 245 245 246 246 247 247 248 248 249 249 249 250 250 250 250 251 252 254 254 255 256 257 258 258 258 258 259 260 261 263 265 267 268
249 248 248 248 246 245 245 246 246 245 246 247 247 247 247 247 248 249 250 250 251 251 250 249 250 251 252 254 254 254 255 257 257 257 257 258 258 259 260 263 265 267 269
250 250 250 249 248 247 247 247 246 247 248 249 249 248 247 248 249 249 250 251 251 250 249 249 249 250 251 253 254 254 254 255 255 256 256 257 259 260 261 263 265 268 270
254 253 252 251 249 249 249 248 248 248 250 251 251 250 249 248 249 250 251 251 250 250 249 248 249 249 250 252 253 253 253 254 255 255 257 258 259 261 263 264 266 267 269
255 255 254 254 252 251 250 249 248 248 249 250 251 251 251 251 250 251 251 250 250 249 249 249 249 249 251 252 253 254 253 254 254 254 256 258 260 261 263 264 266 267 269
256 256 255 255 254 252 251 251 250 250 250 250 251 252 252 252 252 252 251 250 249 248 248 248 249 250 250 252 253 253 252 252 253 253 254 256 259 261 263 265 266 268 269
257 255 254 254 254 254 253 252 252 252 251 251 250 252 253 254 253 251 250 249 248 248 248 248 249 249 250 252 252 252 252 252 252 253 254 256 257 260 263 265 267 269 270
256 254 254 253 253 254 254 253 252 251 250 250 249 251 252 254 254 252 250 249 249 250 250 249 250 250 252 252 252 252 252 252 253 253 254 255 257 260 264 265 266 268 270
256 255 254 253 252 252 253 254 252 251 251 251 251 250 251 252 253 253 250 248 248 250 251 251 251 252 252 252 251 251 252 252 253 253 254 255 257 259 262 263 266 267 269
258 257 256 254 253 254 255 254 253 254 254 252 251 250 251 251 250 252 251 249 248 250 250 250 251 251 252 252 251 250 250 251 252 253 254 255 256 258 260 262 265 267 269
260 259 257 255 255 255 256 256 256 257 256 255 253 252 251 250 250 250 252 251 248 249 250 250 251 252 251 251 252 252 251 251 252 253 254 255 256 258 259 262 266 267 270
Height
5690 5695 5699 5704 5708 5712 5717 5722 5726 5730 5734 5738 5743 5746 5750 5753 5756 5759 5761 5764 5767 5769 5772 5774 5776 5778 5780 5782 5784 5785 5787 5788 5789 5790 5791 5792 5793 5794 5794 5795 5795 5796 5796
5679 5684 5689 5694 5698 5703 5707 5712 5716 5720 5724 5729 5733 5737 5740 5743 5747 5750 5753 5756 5759 5761 5763 5766 5768 5770 5772 5774 5776 5777 5779 5780 5781 5782 5783 5784 5786 5786 5787 5787 5787 5788 5788
5669 5674 5679 5684 5688 5693 5697 5702 5706 5710 5714 5718 5723 5727 5731 5734 5737 5741 5744 5747 5749 5752 5755 5757 5759 5761 5764 5765 5767 5769 5770 5772 5773 5774 5775 5776 5777 5778 5779 5779 5779 5779 5779
5659 5664 5668 5673 5678 5682 5687 5691 5695 5700 5704 5708 5712 5717 5721 5724 5727 5730 5734 5737 5740 5743 5745 5748 5750 5752 5754 5756 5758 5760 5762 5763 5764 5765 5766 5767 5768 5769 5769 5770 5770 5770 5770
5649 5653 5658 5662 5667 5672 5676 5681 5685 5689 5693 5697 5702 5706 5710 5714 5717 5720 5724 5727 5730 5733 5735 5738 5740 5743 5745 5747 5749 5751 5752 5754 5755 5756 5757 5758 5759 5759 5760 5760 5761 5761 5761
5637 5642 5647 5651 5656 5661 5665 5670 5674 5678 5682 5686 5691 5695 5699 5703 5707 5710 5713 5717 5720 5723 5725 5728 5730 5733 5735 5737 5739 5741 5742 5744 5745 5746 5747 5749 5750 5750 5750 5751 5751 5752 5752
5626 5631 5636 5640 5645 5650 5654 5659 5663 5667 5671 5676 5680 5684 5688 5692 5696 5699 5703 5706 5709 5712 5715 5717 5720 5722 5725 5727 5728 5730 5732 5733 5735 5736 5738 5739 5740 5741 5741 5741 5742 5742 5743
5615 5620 5625 5629 5634 5638 5643 5647 5652 5656 5660 5664 5669 5673 5677 5681 5685 5688 5692 5695 5698 5701 5704 5706 5709 5711 5714 5716 5717 5719 5721 5723 5724 5726 5727 5729 5730 5731 5732 5732 5733 5733 5734
5604 5609 5614 5618 5622 5627 5631 5636 5640 5645 5649 5653 5657 5661 5665 5669 5673 5677 5680 5684 5687 5690 5693 5695 5698 5700 5702 5704 5706 5708 5710 5712 5714 5715 5717 5718 5719 5721 5722 5722 5723 5724 5724
5593 5598 5602 5606 5611 5615 5619 5624 5628 5633 5637 5641 5645 5649 5653 5657 5661 5665 5669 5672 5675 5678 5681 5684 5686 5689 5691 5693 5695 5697 5699 5701 5703 5705 5706 5708 5709 5710 5711 5712 5713 5713 5714
5583 5587 5590 5595 5599 5603 5607 5612 5616 5620 5624 5628 5633 5637 5641 5645 5649 5653 5657 5660 5663 5666 5669 5672 5675 5677 5679 5682 5684 5686 5688 5690 5692 5694 5695 5697 5698 5699 5701 5701 5702 5703 5703
5573 5576 5580 5584 5588 5592 5596 5600 5604 5608 5612 5616 5621 5625 5629 5633 5637 5641 5644 5648 5651 5654 5657 5660 5663 5666 5668 5670 5672 5675 5676 5678 5681 5683 5684 5686 5687 5689 5690 5691 5691 5692 5693
5564 5567 5570 5573 5577 5581 5585 5588 5592 5596 5600 5604 5609 5613 5617 5621 5624 5628 5632 5636 5639 5642 5645 5648 5651 5653 5656 5658 5661 5663 5665 5667 5669 5671 5673 5675 5676 5678 5679 5680 5681 5681 5682
5554 5557 5560 5563 5566 5570 5573 5577 5581 5585 5588 5592 5596 5601 5605 5608 5612 5616 5619 5623 5626 5629 5632 5636 5639 5641 5644 5646 5649 5651 5654 5656 5657 5659 5661 5663 5665 5667 5668 5669 5670 5670 5671
5546 5548 5551 5553 5556 5559 5563 5566 5570 5573 5577 5581 5585 5589 5592 5596 5599 5603 5606 5610 5613 5616 5620 5623 5626 5629 5632 5634 5637 5639 5642 5644 5646 5648 5650 5652 5653 5655 5656 5658 5659 5659 5660
5537 5539 5541 5544 5547 5549 5553 5556 5559 5563 5566 5569 5573 5576 5580 5583 5586 5590 5593 5597 5600 5603 5606 5610 5613 5616 5620 5622 5625 5627 5630 5632 5634 5636 5638 5640 5642 5643 5645 5646 5647 5648 5648
5527 5530 5532 5534 5537 5540 5543 5546 5549 5552 5555 5558 5561 5564 5567 5570 5574 5577 5580 5584 5587 5590 5593 5597 5600 5604 5607 5610 5612 5615 5617 5620 5622 5624 5626 5629 5630 5632 5633 5634 5635 5636 5637
5519 5521 5523 5525 5527 5530 5533 5536 5539 5542 5544 5547 5550 5552 5555 5558 5561 5564 5567 5570 5573 5576 5580 5584 5588 5591 5595 5597 5600 5602 5605 5607 5610 5613 5615 5617 5619 5621 5622 5623 5624 5625 5625
5510 5512 5514 5516 5518 5520 5523 5526 5528 5531 5534 5536 5539 5541 5543 5546 5549 5551 5554 5557 5560 5563 5567 5571 5575 5579 5582 5585 5587 5590 5592 5595 5598 5601 5603 5605 5607 5609 5610 5611 5613 5613 5614
5502 5503 5505 5506 5508 5511 5513 5516 5518 5521 5524 5526 5528 5530 5532 5534 5537 5539 5542 5545 5548 5552 5555 5559 5563 5567 5570 5572 5575 5577 5580 5583 5586 5589 5591 5593 5595 5597 5598 5599 5600 5601 5602
5493 5494 5496 5497 5499 5501 5504 5506 5509 5511 5513 5515 5518 5520 5522 5524 5526 5528 5531 5533 5536 5540 5544 5547 5551 5554 5557 5560 5562 5565 5568 5571 5574 5576 5579 5581 5583 5584 5586 5587 5588 5589 5589
5485 5486 5488 5489 5491 5492 5495 5497 5499 5501 5503 5506 5508 5510 5512 5513 5515 5517 5519 5522 5525 5528 5532 5535 5538 5541 5544 5547 5549 5552 5555 5559 5562 5565 5567 5569 5571 5573 5574 5575 5576 5577 5577
5478 5479 5480 5482 5483 5485 5486 5488 5490 5492 5494 5496 5498 5500 5502 5503 5505 5507 5509 5511 5514 5517 5520 5523 5526 5529 5532 5534 5537 5540 5543 5546 5550 5553 5555 5558 5559 5561 5562 5563 5564 5565 5565
5471 5472 5473 5474 5476 5478 5479 5480 5482 5484 5486 5487 5489 5491 5493 5494 5496 5497 5499 5501 5504 5506 5509 5512 5514 5517 5520 5522 5525 5527 5531 5534 5537 5540 5543 5545 5547 5549 5551 5552 5552 5553 5554
5465 5466 5467 5468 5469 5470 5472 5473 5475 5476 5477 5479 5480 5482 5484 5486 5487 5488 5490 5492 5494 5496 5499 5501 5504 5506 5509 5511 5513 5515 5519 5522 5525 5528 5531 5533 5535 5537 5539 5541 5542 5542 5543
5459 5460 5460 5461 5462 5463 5464 5465 5467 5468 5470 5471 5472 5474 5476 5477 5479 5481 5482 5483 5485 5487 5489 5491 5494 5496 5498 5500 5503 5505 5508 5511 5514 5517 5520 5522 5525 5527 5528 5530 5531 5532 5532